Weather History for KNHK - December, 2013

Change the Weather History Date:

Monday, December 30, 2013

  Actual Average Record
Temperature  
Mean Temperature 42 °F -  
Max Temperature 50 °F 43 °F 63 °F (1984)
Min Temperature 35 °F 28 °F 16 °F (1976)
Degree Days  
Heating Degree Days 22    
Moisture  
Dew Point 33 °F    
Average Humidity 75    
Maximum Humidity 93    
Minimum Humidity 59    
Precipitation  
Precipitation 0.00 in - - ()
Sea Level Pressure  
Sea Level Pressure 30.03 in    
Wind  
Wind Speed 5 mph (NNW)    
Max Wind Speed 14 mph    
Max Gust Speed -    
Visibility 10 miles    
Events      
Averages and records for this station are not official NWS values.
T = Trace of Precipitation, MM = Missing Value Source: NWS Daily Summary

Daily Weather History Graph

Daily Weather History Graph

Search for Another Location

Airport or City:

Trip Planner

Search our weather history database for the weather conditions in past years. The results will help you decide how hot, cold, wet, or windy it might be!

Date:

Astronomy

Dec. 30, 2013 Rise Set
Actual Time 7:22 AM EST 4:54 PM EST
Civil Twilight 6:52 AM EST 5:24 PM EST
Nautical Twilight 6:19 AM EST 5:57 PM EST
Astronomical Twilight 5:47 AM EST 6:29 PM EST
Moon 5:10 AM EST (12/30) 3:24 PM EST (12/30)
Length of Visible Light 10h 31m
Length of Day
9h 32m
Waning Crescent, 5% of the Moon is Illuminated
Dec 30
Waning Crescent
Jan 1
New
Jan 7
First Quarter
Jan 15
Full
Jan 24
Last Quarter

Hourly Weather History & Observations

Time (EST) Temp. Windchill Dew Point Humidity Pressure Visibility Wind Dir Wind Speed Gust Speed Precip Events Conditions
12:52 AM 39.0 °F 36.8 °F 36.0 °F 89% 29.85 in 10.0 mi South 3.5 mph - N/A   Clear
1:52 AM 37.0 °F - 35.1 °F 93% 29.86 in 10.0 mi Calm Calm - N/A   Clear
2:52 AM 39.9 °F - 37.0 °F 89% 29.89 in 10.0 mi Calm Calm - N/A   Clear
3:52 AM 37.9 °F - 35.1 °F 89% 29.89 in 10.0 mi Calm Calm - N/A   Clear
4:52 AM 37.9 °F 35.5 °F 36.0 °F 93% 29.91 in 10.0 mi SW 3.5 mph - N/A   Mostly Cloudy
5:04 AM 37.9 °F - 36.0 °F 93% 29.91 in 10.0 mi Calm Calm - N/A   Overcast
5:52 AM 42.1 °F 39.2 °F 39.0 °F 89% 29.93 in 10.0 mi WNW 4.6 mph - N/A   Overcast
6:52 AM 41.0 °F 37.1 °F 37.9 °F 89% 29.95 in 10.0 mi West 5.8 mph - N/A   Mostly Cloudy
7:52 AM 41.0 °F 37.1 °F 37.0 °F 86% 29.97 in 10.0 mi WSW 5.8 mph - N/A   Mostly Cloudy
8:52 AM 42.1 °F 40.2 °F 37.9 °F 85% 29.99 in 10.0 mi SSW 3.5 mph - N/A   Mostly Cloudy
9:52 AM 45.0 °F - 39.0 °F 80% 30.01 in 10.0 mi Calm Calm - N/A   Overcast
10:52 AM 46.9 °F - 39.9 °F 77% 30.04 in 10.0 mi NW 5.8 mph - N/A   Overcast
11:52 AM 48.9 °F - 39.0 °F 69% 30.04 in 10.0 mi NW 8.1 mph - N/A   Overcast
12:52 PM 50.0 °F - 36.0 °F 59% 30.02 in 10.0 mi NNW 11.5 mph - N/A   Overcast
1:52 PM 46.0 °F 40.2 °F 35.1 °F 66% 30.05 in 10.0 mi NNE 12.7 mph - N/A   Overcast
2:52 PM 45.0 °F 40.1 °F 32.0 °F 60% 30.07 in 10.0 mi North 9.2 mph - N/A   Overcast
3:52 PM 43.0 °F 36.8 °F 33.1 °F 68% 30.10 in 10.0 mi NNE 11.5 mph - N/A   Overcast
4:52 PM 41.0 °F 33.5 °F 28.9 °F 62% 30.12 in 10.0 mi North 13.8 mph - N/A   Overcast
5:52 PM 39.9 °F 34.5 °F 28.0 °F 63% 30.12 in 10.0 mi North 8.1 mph - N/A   Mostly Cloudy
6:52 PM 39.0 °F 32.8 °F 28.0 °F 65% 30.13 in 10.0 mi NNE 9.2 mph - N/A   Mostly Cloudy
7:52 PM 37.9 °F 32.1 °F 26.1 °F 62% 30.15 in 10.0 mi North 8.1 mph - N/A   Mostly Cloudy
8:52 PM 37.9 °F 30.9 °F 27.0 °F 65% 30.17 in 10.0 mi North 10.4 mph - N/A   Overcast
9:52 PM 37.9 °F 32.1 °F 25.0 °F 60% 30.17 in 10.0 mi North 8.1 mph - N/A   Overcast
10:52 PM 35.1 °F 27.4 °F 24.1 °F 64% 30.18 in 10.0 mi NNE 10.4 mph - N/A   Overcast
11:52 PM 35.1 °F 27.9 °F 23.0 °F 61% 30.18 in 10.0 mi NE 9.2 mph - N/A   Overcast